<?xml version="1.0" encoding="utf-8"?>
<gpx xmlns:xsi="http://www.w3.org/2001/XMLSchema-instance" xmlns:xsd="http://www.w3.org/2001/XMLSchema" version="1.1" creator="Shapelink.com" xmlns="http://www.topografix.com/GPX/1/1" xmlns:gpxtpx="http://www.garmin.com/xmlschemas/TrackPointExtension/v1">
  <metadata>
    <name>Løping 7.11 km, 2014-03-09</name>
    <desc></desc>
    <author><name>Mikael Blom</name></author> 
    <time>1970-01-01T01:00:00Z</time>
  </metadata>
  <trk>
    <name>Løping 7.11 km, 2014-03-09</name>
    <trkseg>
      <trkpt lat="59.899023" lon="17.631478">
        <ele>23.8725</ele>
        <time>1970-01-01T01:00:00Z</time>
      </trkpt>
      <trkpt lat="59.898962" lon="17.631273">
        <ele>24.149</ele>
        <time>1970-01-01T01:00:00Z</time>
      </trkpt>
      <trkpt lat="59.898898" lon="17.631102">
        <ele>24.1745</ele>
        <time>1970-01-01T01:00:00Z</time>
      </trkpt>
      <trkpt lat="59.898818" lon="17.630942">
        <ele>23.8091</ele>
        <time>1970-01-01T01:00:00Z</time>
      </trkpt>
      <trkpt lat="59.898755" lon="17.63078">
        <ele>24.4702</ele>
        <time>1970-01-01T01:00:00Z</time>
      </trkpt>
      <trkpt lat="59.898682" lon="17.630576">
        <ele>24.9826</ele>
        <time>1970-01-01T01:00:00Z</time>
      </trkpt>
      <trkpt lat="59.898621" lon="17.630386">
        <ele>25.2101</ele>
        <time>1970-01-01T01:00:00Z</time>
      </trkpt>
      <trkpt lat="59.89856" lon="17.630212">
        <ele>24.7515</ele>
        <time>1970-01-01T01:00:00Z</time>
      </trkpt>
      <trkpt lat="59.898504" lon="17.630011">
        <ele>24.0686</ele>
        <time>1970-01-01T01:00:00Z</time>
      </trkpt>
      <trkpt lat="59.898442" lon="17.629848">
        <ele>24.1803</ele>
        <time>1970-01-01T01:00:00Z</time>
      </trkpt>
      <trkpt lat="59.898383" lon="17.629704">
        <ele>23.9896</ele>
        <time>1970-01-01T01:00:00Z</time>
      </trkpt>
      <trkpt lat="59.898324" lon="17.629534">
        <ele>23.4508</ele>
        <time>1970-01-01T01:00:00Z</time>
      </trkpt>
      <trkpt lat="59.898274" lon="17.629379">
        <ele>23.6363</ele>
        <time>1970-01-01T01:00:00Z</time>
      </trkpt>
      <trkpt lat="59.89823" lon="17.629205">
        <ele>24.1196</ele>
        <time>1970-01-01T01:00:00Z</time>
      </trkpt>
      <trkpt lat="59.898193" lon="17.629">
        <ele>24.4961</ele>
        <time>1970-01-01T01:00:00Z</time>
      </trkpt>
      <trkpt lat="59.89815" lon="17.628825">
        <ele>24.6191</ele>
        <time>1970-01-01T01:00:00Z</time>
      </trkpt>
      <trkpt lat="59.898106" lon="17.628665">
        <ele>25.064</ele>
        <time>1970-01-01T01:00:00Z</time>
      </trkpt>
      <trkpt lat="59.898069" lon="17.628496">
        <ele>24.8496</ele>
        <time>1970-01-01T01:00:00Z</time>
      </trkpt>
      <trkpt lat="59.898033" lon="17.628275">
        <ele>24.1891</ele>
        <time>1970-01-01T01:00:00Z</time>
      </trkpt>
      <trkpt lat="59.897986" lon="17.62809">
        <ele>23.7514</ele>
        <time>1970-01-01T01:00:00Z</time>
      </trkpt>
      <trkpt lat="59.897939" lon="17.627914">
        <ele>23.2062</ele>
        <time>1970-01-01T01:00:00Z</time>
      </trkpt>
      <trkpt lat="59.897889" lon="17.627753">
        <ele>22.2978</ele>
        <time>1970-01-01T01:00:00Z</time>
      </trkpt>
      <trkpt lat="59.897834" lon="17.627607">
        <ele>21.7192</ele>
        <time>1970-01-01T01:00:00Z</time>
      </trkpt>
      <trkpt lat="59.897777" lon="17.627443">
        <ele>20.7542</ele>
        <time>1970-01-01T01:00:00Z</time>
      </trkpt>
      <trkpt lat="59.897733" lon="17.627279">
        <ele>19.8763</ele>
        <time>1970-01-01T01:00:00Z</time>
      </trkpt>
      <trkpt lat="59.897661" lon="17.627082">
        <ele>19.6067</ele>
        <time>1970-01-01T01:00:00Z</time>
      </trkpt>
      <trkpt lat="59.897598" lon="17.626929">
        <ele>18.7655</ele>
        <time>1970-01-01T01:00:00Z</time>
      </trkpt>
      <trkpt lat="59.897519" lon="17.626772">
        <ele>18.0718</ele>
        <time>1970-01-01T01:00:00Z</time>
      </trkpt>
      <trkpt lat="59.897437" lon="17.626625">
        <ele>17.8949</ele>
        <time>1970-01-01T01:00:00Z</time>
      </trkpt>
      <trkpt lat="59.897349" lon="17.626479">
        <ele>18.0859</ele>
        <time>1970-01-01T01:00:00Z</time>
      </trkpt>
      <trkpt lat="59.897271" lon="17.626379">
        <ele>18.7018</ele>
        <time>1970-01-01T01:00:00Z</time>
      </trkpt>
      <trkpt lat="59.897187" lon="17.626259">
        <ele>19.4197</ele>
        <time>1970-01-01T01:00:00Z</time>
      </trkpt>
      <trkpt lat="59.897108" lon="17.626153">
        <ele>20.2498</ele>
        <time>1970-01-01T01:00:00Z</time>
      </trkpt>
      <trkpt lat="59.897009" lon="17.626044">
        <ele>20.4972</ele>
        <time>1970-01-01T01:00:00Z</time>
      </trkpt>
      <trkpt lat="59.896912" lon="17.625965">
        <ele>21.0433</ele>
        <time>1970-01-01T01:00:00Z</time>
      </trkpt>
      <trkpt lat="59.896832" lon="17.625884">
        <ele>21.5665</ele>
        <time>1970-01-01T01:00:00Z</time>
      </trkpt>
      <trkpt lat="59.896745" lon="17.625817">
        <ele>22.1123</ele>
        <time>1970-01-01T01:00:00Z</time>
      </trkpt>
      <trkpt lat="59.896654" lon="17.625792">
        <ele>22.9614</ele>
        <time>1970-01-01T01:00:00Z</time>
      </trkpt>
      <trkpt lat="59.896554" lon="17.625762">
        <ele>23.7112</ele>
        <time>1970-01-01T01:00:00Z</time>
      </trkpt>
      <trkpt lat="59.896457" lon="17.625706">
        <ele>24.1023</ele>
        <time>1970-01-01T01:00:00Z</time>
      </trkpt>
      <trkpt lat="59.896356" lon="17.625642">
        <ele>24.8939</ele>
        <time>1970-01-01T01:00:00Z</time>
      </trkpt>
      <trkpt lat="59.896274" lon="17.625566">
        <ele>25.0425</ele>
        <time>1970-01-01T01:00:00Z</time>
      </trkpt>
      <trkpt lat="59.896168" lon="17.625502">
        <ele>25.3868</ele>
        <time>1970-01-01T01:00:00Z</time>
      </trkpt>
      <trkpt lat="59.896075" lon="17.625479">
        <ele>25.9504</ele>
        <time>1970-01-01T01:00:00Z</time>
      </trkpt>
      <trkpt lat="59.895961" lon="17.625487">
        <ele>26.3484</ele>
        <time>1970-01-01T01:00:00Z</time>
      </trkpt>
      <trkpt lat="59.89586" lon="17.625425">
        <ele>26.6926</ele>
        <time>1970-01-01T01:00:00Z</time>
      </trkpt>
      <trkpt lat="59.895756" lon="17.625329">
        <ele>25.8753</ele>
        <time>1970-01-01T01:00:00Z</time>
      </trkpt>
      <trkpt lat="59.895668" lon="17.625222">
        <ele>24.9311</ele>
        <time>1970-01-01T01:00:00Z</time>
      </trkpt>
      <trkpt lat="59.895605" lon="17.625092">
        <ele>24.3466</ele>
        <time>1970-01-01T01:00:00Z</time>
      </trkpt>
      <trkpt lat="59.895577" lon="17.624858">
        <ele>23.8531</ele>
        <time>1970-01-01T01:00:00Z</time>
      </trkpt>
      <trkpt lat="59.895569" lon="17.624635">
        <ele>22.6776</ele>
        <time>1970-01-01T01:00:00Z</time>
      </trkpt>
      <trkpt lat="59.895555" lon="17.624448">
        <ele>20.9723</ele>
        <time>1970-01-01T01:00:00Z</time>
      </trkpt>
      <trkpt lat="59.895572" lon="17.624237">
        <ele>20.1781</ele>
        <time>1970-01-01T01:00:00Z</time>
      </trkpt>
      <trkpt lat="59.895626" lon="17.624066">
        <ele>19.38</ele>
        <time>1970-01-01T01:00:00Z</time>
      </trkpt>
      <trkpt lat="59.895699" lon="17.62391">
        <ele>18.9205</ele>
        <time>1970-01-01T01:00:00Z</time>
      </trkpt>
      <trkpt lat="59.895786" lon="17.623813">
        <ele>18.6893</ele>
        <time>1970-01-01T01:00:00Z</time>
      </trkpt>
      <trkpt lat="59.895865" lon="17.623713">
        <ele>18.1302</ele>
        <time>1970-01-01T01:00:00Z</time>
      </trkpt>
      <trkpt lat="59.895941" lon="17.623583">
        <ele>19.43</ele>
        <time>1970-01-01T01:00:00Z</time>
      </trkpt>
      <trkpt lat="59.896016" lon="17.623429">
        <ele>21.008</ele>
        <time>1970-01-01T01:00:00Z</time>
      </trkpt>
      <trkpt lat="59.896102" lon="17.623308">
        <ele>21.8746</ele>
        <time>1970-01-01T01:00:00Z</time>
      </trkpt>
      <trkpt lat="59.896166" lon="17.623118">
        <ele>22.8834</ele>
        <time>1970-01-01T01:00:00Z</time>
      </trkpt>
      <trkpt lat="59.896166" lon="17.622902">
        <ele>24.2886</ele>
        <time>1970-01-01T01:00:00Z</time>
      </trkpt>
      <trkpt lat="59.89611" lon="17.622739">
        <ele>26.3786</ele>
        <time>1970-01-01T01:00:00Z</time>
      </trkpt>
      <trkpt lat="59.89603" lon="17.622625">
        <ele>28.0324</ele>
        <time>1970-01-01T01:00:00Z</time>
      </trkpt>
      <trkpt lat="59.895963" lon="17.622487">
        <ele>28.9194</ele>
        <time>1970-01-01T01:00:00Z</time>
      </trkpt>
      <trkpt lat="59.895884" lon="17.622378">
        <ele>29.8632</ele>
        <time>1970-01-01T01:00:00Z</time>
      </trkpt>
      <trkpt lat="59.895793" lon="17.622283">
        <ele>31.5859</ele>
        <time>1970-01-01T01:00:00Z</time>
      </trkpt>
      <trkpt lat="59.895717" lon="17.622159">
        <ele>33.6558</ele>
        <time>1970-01-01T01:00:00Z</time>
      </trkpt>
      <trkpt lat="59.895642" lon="17.62206">
        <ele>35.0408</ele>
        <time>1970-01-01T01:00:00Z</time>
      </trkpt>
      <trkpt lat="59.895557" lon="17.621989">
        <ele>35.704</ele>
        <time>1970-01-01T01:00:00Z</time>
      </trkpt>
      <trkpt lat="59.895454" lon="17.621892">
        <ele>37.142</ele>
        <time>1970-01-01T01:00:00Z</time>
      </trkpt>
      <trkpt lat="59.895355" lon="17.621869">
        <ele>38.6098</ele>
        <time>1970-01-01T01:00:00Z</time>
      </trkpt>
      <trkpt lat="59.895248" lon="17.621906">
        <ele>40.7939</ele>
        <time>1970-01-01T01:00:00Z</time>
      </trkpt>
      <trkpt lat="59.895158" lon="17.621906">
        <ele>42.1961</ele>
        <time>1970-01-01T01:00:00Z</time>
      </trkpt>
      <trkpt lat="59.895067" lon="17.62187">
        <ele>43.0703</ele>
        <time>1970-01-01T01:00:00Z</time>
      </trkpt>
      <trkpt lat="59.894975" lon="17.621872">
        <ele>44.157</ele>
        <time>1970-01-01T01:00:00Z</time>
      </trkpt>
      <trkpt lat="59.894878" lon="17.621921">
        <ele>45.5357</ele>
        <time>1970-01-01T01:00:00Z</time>
      </trkpt>
      <trkpt lat="59.894776" lon="17.621962">
        <ele>45.9617</ele>
        <time>1970-01-01T01:00:00Z</time>
      </trkpt>
      <trkpt lat="59.894681" lon="17.621934">
        <ele>45.7612</ele>
        <time>1970-01-01T01:00:00Z</time>
      </trkpt>
      <trkpt lat="59.894579" lon="17.621886">
        <ele>45.4324</ele>
        <time>1970-01-01T01:00:00Z</time>
      </trkpt>
      <trkpt lat="59.894486" lon="17.621826">
        <ele>45.5947</ele>
        <time>1970-01-01T01:00:00Z</time>
      </trkpt>
      <trkpt lat="59.894394" lon="17.621772">
        <ele>45.9343</ele>
        <time>1970-01-01T01:00:00Z</time>
      </trkpt>
      <trkpt lat="59.894304" lon="17.62171">
        <ele>45.7926</ele>
        <time>1970-01-01T01:00:00Z</time>
      </trkpt>
      <trkpt lat="59.894209" lon="17.621669">
        <ele>44.9458</ele>
        <time>1970-01-01T01:00:00Z</time>
      </trkpt>
      <trkpt lat="59.894099" lon="17.62162">
        <ele>44.9072</ele>
        <time>1970-01-01T01:00:00Z</time>
      </trkpt>
      <trkpt lat="59.894014" lon="17.621561">
        <ele>44.6833</ele>
        <time>1970-01-01T01:00:00Z</time>
      </trkpt>
      <trkpt lat="59.893916" lon="17.621492">
        <ele>44.7814</ele>
        <time>1970-01-01T01:00:00Z</time>
      </trkpt>
      <trkpt lat="59.893815" lon="17.621495">
        <ele>44.3424</ele>
        <time>1970-01-01T01:00:00Z</time>
      </trkpt>
      <trkpt lat="59.893713" lon="17.621555">
        <ele>44.6637</ele>
        <time>1970-01-01T01:00:00Z</time>
      </trkpt>
      <trkpt lat="59.893608" lon="17.621557">
        <ele>45.1717</ele>
        <time>1970-01-01T01:00:00Z</time>
      </trkpt>
      <trkpt lat="59.893497" lon="17.621525">
        <ele>45.3175</ele>
        <time>1970-01-01T01:00:00Z</time>
      </trkpt>
      <trkpt lat="59.893387" lon="17.621537">
        <ele>44.8671</ele>
        <time>1970-01-01T01:00:00Z</time>
      </trkpt>
      <trkpt lat="59.893268" lon="17.621575">
        <ele>44.1347</ele>
        <time>1970-01-01T01:00:00Z</time>
      </trkpt>
      <trkpt lat="59.893177" lon="17.621595">
        <ele>43.7439</ele>
        <time>1970-01-01T01:00:00Z</time>
      </trkpt>
      <trkpt lat="59.893086" lon="17.621572">
        <ele>43.2401</ele>
        <time>1970-01-01T01:00:00Z</time>
      </trkpt>
      <trkpt lat="59.892983" lon="17.621541">
        <ele>41.9149</ele>
        <time>1970-01-01T01:00:00Z</time>
      </trkpt>
      <trkpt lat="59.892882" lon="17.62148">
        <ele>41.6814</ele>
        <time>1970-01-01T01:00:00Z</time>
      </trkpt>
      <trkpt lat="59.892782" lon="17.621385">
        <ele>40.7761</ele>
        <time>1970-01-01T01:00:00Z</time>
      </trkpt>
      <trkpt lat="59.892672" lon="17.621315">
        <ele>39.9019</ele>
        <time>1970-01-01T01:00:00Z</time>
      </trkpt>
      <trkpt lat="59.892577" lon="17.621261">
        <ele>38.6012</ele>
        <time>1970-01-01T01:00:00Z</time>
      </trkpt>
      <trkpt lat="59.892487" lon="17.621214">
        <ele>37.7543</ele>
        <time>1970-01-01T01:00:00Z</time>
      </trkpt>
      <trkpt lat="59.892389" lon="17.621211">
        <ele>37.1557</ele>
        <time>1970-01-01T01:00:00Z</time>
      </trkpt>
      <trkpt lat="59.892305" lon="17.621147">
        <ele>37.1183</ele>
        <time>1970-01-01T01:00:00Z</time>
      </trkpt>
      <trkpt lat="59.892214" lon="17.621097">
        <ele>36.3836</ele>
        <time>1970-01-01T01:00:00Z</time>
      </trkpt>
      <trkpt lat="59.892116" lon="17.621131">
        <ele>34.9896</ele>
        <time>1970-01-01T01:00:00Z</time>
      </trkpt>
      <trkpt lat="59.892015" lon="17.621217">
        <ele>34.1883</ele>
        <time>1970-01-01T01:00:00Z</time>
      </trkpt>
      <trkpt lat="59.891913" lon="17.62132">
        <ele>33.6182</ele>
        <time>1970-01-01T01:00:00Z</time>
      </trkpt>
      <trkpt lat="59.891833" lon="17.62144">
        <ele>32.3295</ele>
        <time>1970-01-01T01:00:00Z</time>
      </trkpt>
      <trkpt lat="59.891774" lon="17.62163">
        <ele>31.2171</ele>
        <time>1970-01-01T01:00:00Z</time>
      </trkpt>
      <trkpt lat="59.891711" lon="17.621802">
        <ele>29.4999</ele>
        <time>1970-01-01T01:00:00Z</time>
      </trkpt>
      <trkpt lat="59.891636" lon="17.621926">
        <ele>28.2625</ele>
        <time>1970-01-01T01:00:00Z</time>
      </trkpt>
      <trkpt lat="59.891531" lon="17.621998">
        <ele>26.8413</ele>
        <time>1970-01-01T01:00:00Z</time>
      </trkpt>
      <trkpt lat="59.891442" lon="17.622019">
        <ele>25.7973</ele>
        <time>1970-01-01T01:00:00Z</time>
      </trkpt>
      <trkpt lat="59.891327" lon="17.622058">
        <ele>24.1463</ele>
        <time>1970-01-01T01:00:00Z</time>
      </trkpt>
      <trkpt lat="59.891245" lon="17.622203">
        <ele>22.9404</ele>
        <time>1970-01-01T01:00:00Z</time>
      </trkpt>
      <trkpt lat="59.891156" lon="17.622328">
        <ele>22.1819</ele>
        <time>1970-01-01T01:00:00Z</time>
      </trkpt>
      <trkpt lat="59.891065" lon="17.622436">
        <ele>21.6132</ele>
        <time>1970-01-01T01:00:00Z</time>
      </trkpt>
      <trkpt lat="59.890991" lon="17.622575">
        <ele>21.2219</ele>
        <time>1970-01-01T01:00:00Z</time>
      </trkpt>
      <trkpt lat="59.890895" lon="17.62268">
        <ele>21.0219</ele>
        <time>1970-01-01T01:00:00Z</time>
      </trkpt>
      <trkpt lat="59.890819" lon="17.622811">
        <ele>20.8722</ele>
        <time>1970-01-01T01:00:00Z</time>
      </trkpt>
      <trkpt lat="59.890742" lon="17.622982">
        <ele>20.8993</ele>
        <time>1970-01-01T01:00:00Z</time>
      </trkpt>
      <trkpt lat="59.890654" lon="17.623141">
        <ele>20.5072</ele>
        <time>1970-01-01T01:00:00Z</time>
      </trkpt>
      <trkpt lat="59.890573" lon="17.623333">
        <ele>20.4085</ele>
        <time>1970-01-01T01:00:00Z</time>
      </trkpt>
      <trkpt lat="59.890498" lon="17.623469">
        <ele>19.8999</ele>
        <time>1970-01-01T01:00:00Z</time>
      </trkpt>
      <trkpt lat="59.890425" lon="17.62362">
        <ele>20.0407</ele>
        <time>1970-01-01T01:00:00Z</time>
      </trkpt>
      <trkpt lat="59.89034" lon="17.623759">
        <ele>20.2411</ele>
        <time>1970-01-01T01:00:00Z</time>
      </trkpt>
      <trkpt lat="59.890267" lon="17.623874">
        <ele>20.3319</ele>
        <time>1970-01-01T01:00:00Z</time>
      </trkpt>
      <trkpt lat="59.890192" lon="17.623977">
        <ele>20.2238</ele>
        <time>1970-01-01T01:00:00Z</time>
      </trkpt>
      <trkpt lat="59.890097" lon="17.624075">
        <ele>20.1121</ele>
        <time>1970-01-01T01:00:00Z</time>
      </trkpt>
      <trkpt lat="59.889998" lon="17.624108">
        <ele>19.1501</ele>
        <time>1970-01-01T01:00:00Z</time>
      </trkpt>
      <trkpt lat="59.889909" lon="17.624086">
        <ele>18.3762</ele>
        <time>1970-01-01T01:00:00Z</time>
      </trkpt>
      <trkpt lat="59.8898" lon="17.624078">
        <ele>18.0211</ele>
        <time>1970-01-01T01:00:00Z</time>
      </trkpt>
      <trkpt lat="59.889692" lon="17.624075">
        <ele>17.2184</ele>
        <time>1970-01-01T01:00:00Z</time>
      </trkpt>
      <trkpt lat="59.88959" lon="17.624052">
        <ele>16.5009</ele>
        <time>1970-01-01T01:00:00Z</time>
      </trkpt>
      <trkpt lat="59.889495" lon="17.624005">
        <ele>15.5715</ele>
        <time>1970-01-01T01:00:00Z</time>
      </trkpt>
      <trkpt lat="59.889423" lon="17.623841">
        <ele>14.6992</ele>
        <time>1970-01-01T01:00:00Z</time>
      </trkpt>
      <trkpt lat="59.889359" lon="17.623666">
        <ele>14.0975</ele>
        <time>1970-01-01T01:00:00Z</time>
      </trkpt>
      <trkpt lat="59.889283" lon="17.623534">
        <ele>14.0895</ele>
        <time>1970-01-01T01:00:00Z</time>
      </trkpt>
      <trkpt lat="59.889208" lon="17.623402">
        <ele>13.5255</ele>
        <time>1970-01-01T01:00:00Z</time>
      </trkpt>
      <trkpt lat="59.889132" lon="17.623246">
        <ele>12.9234</ele>
        <time>1970-01-01T01:00:00Z</time>
      </trkpt>
      <trkpt lat="59.889038" lon="17.623122">
        <ele>13.6078</ele>
        <time>1970-01-01T01:00:00Z</time>
      </trkpt>
      <trkpt lat="59.88896" lon="17.623027">
        <ele>14.8505</ele>
        <time>1970-01-01T01:00:00Z</time>
      </trkpt>
      <trkpt lat="59.88889" lon="17.622898">
        <ele>16.4199</ele>
        <time>1970-01-01T01:00:00Z</time>
      </trkpt>
      <trkpt lat="59.888787" lon="17.622837">
        <ele>18.636</ele>
        <time>1970-01-01T01:00:00Z</time>
      </trkpt>
      <trkpt lat="59.888691" lon="17.622818">
        <ele>19.9704</ele>
        <time>1970-01-01T01:00:00Z</time>
      </trkpt>
      <trkpt lat="59.8886" lon="17.622886">
        <ele>22.0064</ele>
        <time>1970-01-01T01:00:00Z</time>
      </trkpt>
      <trkpt lat="59.88851" lon="17.622952">
        <ele>23.152</ele>
        <time>1970-01-01T01:00:00Z</time>
      </trkpt>
      <trkpt lat="59.888408" lon="17.622967">
        <ele>24.6231</ele>
        <time>1970-01-01T01:00:00Z</time>
      </trkpt>
      <trkpt lat="59.888311" lon="17.622975">
        <ele>26.3402</ele>
        <time>1970-01-01T01:00:00Z</time>
      </trkpt>
      <trkpt lat="59.888219" lon="17.623008">
        <ele>28.6553</ele>
        <time>1970-01-01T01:00:00Z</time>
      </trkpt>
      <trkpt lat="59.888118" lon="17.622988">
        <ele>30.9083</ele>
        <time>1970-01-01T01:00:00Z</time>
      </trkpt>
      <trkpt lat="59.888002" lon="17.623019">
        <ele>32.2822</ele>
        <time>1970-01-01T01:00:00Z</time>
      </trkpt>
      <trkpt lat="59.887909" lon="17.622942">
        <ele>33.2997</ele>
        <time>1970-01-01T01:00:00Z</time>
      </trkpt>
      <trkpt lat="59.88784" lon="17.622776">
        <ele>33.7674</ele>
        <time>1970-01-01T01:00:00Z</time>
      </trkpt>
      <trkpt lat="59.887802" lon="17.622597">
        <ele>34.0679</ele>
        <time>1970-01-01T01:00:00Z</time>
      </trkpt>
      <trkpt lat="59.887756" lon="17.622442">
        <ele>34.1705</ele>
        <time>1970-01-01T01:00:00Z</time>
      </trkpt>
      <trkpt lat="59.887698" lon="17.622297">
        <ele>34.5158</ele>
        <time>1970-01-01T01:00:00Z</time>
      </trkpt>
      <trkpt lat="59.88764" lon="17.622141">
        <ele>35.4803</ele>
        <time>1970-01-01T01:00:00Z</time>
      </trkpt>
      <trkpt lat="59.887564" lon="17.621986">
        <ele>36.072</ele>
        <time>1970-01-01T01:00:00Z</time>
      </trkpt>
      <trkpt lat="59.887504" lon="17.621844">
        <ele>36.5923</ele>
        <time>1970-01-01T01:00:00Z</time>
      </trkpt>
      <trkpt lat="59.887446" lon="17.621693">
        <ele>36.4678</ele>
        <time>1970-01-01T01:00:00Z</time>
      </trkpt>
      <trkpt lat="59.887369" lon="17.621586">
        <ele>35.4159</ele>
        <time>1970-01-01T01:00:00Z</time>
      </trkpt>
      <trkpt lat="59.88725" lon="17.62155">
        <ele>34.5762</ele>
        <time>1970-01-01T01:00:00Z</time>
      </trkpt>
      <trkpt lat="59.887133" lon="17.621536">
        <ele>33.3538</ele>
        <time>1970-01-01T01:00:00Z</time>
      </trkpt>
      <trkpt lat="59.887025" lon="17.621544">
        <ele>32.2496</ele>
        <time>1970-01-01T01:00:00Z</time>
      </trkpt>
      <trkpt lat="59.886914" lon="17.621544">
        <ele>31.0539</ele>
        <time>1970-01-01T01:00:00Z</time>
      </trkpt>
      <trkpt lat="59.886799" lon="17.621611">
        <ele>30.2155</ele>
        <time>1970-01-01T01:00:00Z</time>
      </trkpt>
      <trkpt lat="59.886685" lon="17.621683">
        <ele>29.0147</ele>
        <time>1970-01-01T01:00:00Z</time>
      </trkpt>
      <trkpt lat="59.886575" lon="17.621744">
        <ele>27.8911</ele>
        <time>1970-01-01T01:00:00Z</time>
      </trkpt>
      <trkpt lat="59.88647" lon="17.621772">
        <ele>26.1311</ele>
        <time>1970-01-01T01:00:00Z</time>
      </trkpt>
      <trkpt lat="59.886367" lon="17.6218">
        <ele>23.957</ele>
        <time>1970-01-01T01:00:00Z</time>
      </trkpt>
      <trkpt lat="59.886251" lon="17.621809">
        <ele>22.1047</ele>
        <time>1970-01-01T01:00:00Z</time>
      </trkpt>
      <trkpt lat="59.88615" lon="17.621838">
        <ele>21.2167</ele>
        <time>1970-01-01T01:00:00Z</time>
      </trkpt>
      <trkpt lat="59.886053" lon="17.6219">
        <ele>20.8423</ele>
        <time>1970-01-01T01:00:00Z</time>
      </trkpt>
      <trkpt lat="59.885954" lon="17.621941">
        <ele>20.1017</ele>
        <time>1970-01-01T01:00:00Z</time>
      </trkpt>
      <trkpt lat="59.88586" lon="17.621971">
        <ele>19.35</ele>
        <time>1970-01-01T01:00:00Z</time>
      </trkpt>
      <trkpt lat="59.885768" lon="17.622058">
        <ele>19.0489</ele>
        <time>1970-01-01T01:00:00Z</time>
      </trkpt>
      <trkpt lat="59.885686" lon="17.622201">
        <ele>19.1202</ele>
        <time>1970-01-01T01:00:00Z</time>
      </trkpt>
      <trkpt lat="59.885612" lon="17.622357">
        <ele>18.9393</ele>
        <time>1970-01-01T01:00:00Z</time>
      </trkpt>
      <trkpt lat="59.885526" lon="17.622504">
        <ele>19.0412</ele>
        <time>1970-01-01T01:00:00Z</time>
      </trkpt>
      <trkpt lat="59.885433" lon="17.622627">
        <ele>20.0829</ele>
        <time>1970-01-01T01:00:00Z</time>
      </trkpt>
      <trkpt lat="59.885335" lon="17.622646">
        <ele>21.3273</ele>
        <time>1970-01-01T01:00:00Z</time>
      </trkpt>
      <trkpt lat="59.885231" lon="17.622661">
        <ele>22.6301</ele>
        <time>1970-01-01T01:00:00Z</time>
      </trkpt>
      <trkpt lat="59.885132" lon="17.62271">
        <ele>23.6829</ele>
        <time>1970-01-01T01:00:00Z</time>
      </trkpt>
      <trkpt lat="59.885028" lon="17.622789">
        <ele>24.0125</ele>
        <time>1970-01-01T01:00:00Z</time>
      </trkpt>
      <trkpt lat="59.884928" lon="17.622897">
        <ele>25.1693</ele>
        <time>1970-01-01T01:00:00Z</time>
      </trkpt>
      <trkpt lat="59.884852" lon="17.622994">
        <ele>25.821</ele>
        <time>1970-01-01T01:00:00Z</time>
      </trkpt>
      <trkpt lat="59.884768" lon="17.623089">
        <ele>25.6657</ele>
        <time>1970-01-01T01:00:00Z</time>
      </trkpt>
      <trkpt lat="59.884672" lon="17.623187">
        <ele>25.5684</ele>
        <time>1970-01-01T01:00:00Z</time>
      </trkpt>
      <trkpt lat="59.884575" lon="17.623287">
        <ele>25.3116</ele>
        <time>1970-01-01T01:00:00Z</time>
      </trkpt>
      <trkpt lat="59.884473" lon="17.623353">
        <ele>24.4899</ele>
        <time>1970-01-01T01:00:00Z</time>
      </trkpt>
      <trkpt lat="59.884365" lon="17.6234">
        <ele>23.6462</ele>
        <time>1970-01-01T01:00:00Z</time>
      </trkpt>
      <trkpt lat="59.884277" lon="17.623439">
        <ele>22.7359</ele>
        <time>1970-01-01T01:00:00Z</time>
      </trkpt>
      <trkpt lat="59.884179" lon="17.623482">
        <ele>22.5524</ele>
        <time>1970-01-01T01:00:00Z</time>
      </trkpt>
      <trkpt lat="59.884084" lon="17.623527">
        <ele>21.7711</ele>
        <time>1970-01-01T01:00:00Z</time>
      </trkpt>
      <trkpt lat="59.883995" lon="17.623597">
        <ele>21.2952</ele>
        <time>1970-01-01T01:00:00Z</time>
      </trkpt>
      <trkpt lat="59.883912" lon="17.623739">
        <ele>20.6506</ele>
        <time>1970-01-01T01:00:00Z</time>
      </trkpt>
      <trkpt lat="59.883838" lon="17.623887">
        <ele>20.5846</ele>
        <time>1970-01-01T01:00:00Z</time>
      </trkpt>
      <trkpt lat="59.883769" lon="17.624004">
        <ele>20.6401</ele>
        <time>1970-01-01T01:00:00Z</time>
      </trkpt>
      <trkpt lat="59.883667" lon="17.624091">
        <ele>20.5305</ele>
        <time>1970-01-01T01:00:00Z</time>
      </trkpt>
      <trkpt lat="59.883565" lon="17.624145">
        <ele>20.4719</ele>
        <time>1970-01-01T01:00:00Z</time>
      </trkpt>
      <trkpt lat="59.883485" lon="17.624236">
        <ele>21.1794</ele>
        <time>1970-01-01T01:00:00Z</time>
      </trkpt>
      <trkpt lat="59.883427" lon="17.624374">
        <ele>21.2539</ele>
        <time>1970-01-01T01:00:00Z</time>
      </trkpt>
      <trkpt lat="59.883358" lon="17.624519">
        <ele>21.3684</ele>
        <time>1970-01-01T01:00:00Z</time>
      </trkpt>
      <trkpt lat="59.883302" lon="17.624685">
        <ele>20.6353</ele>
        <time>1970-01-01T01:00:00Z</time>
      </trkpt>
      <trkpt lat="59.883242" lon="17.624845">
        <ele>20.9288</ele>
        <time>1970-01-01T01:00:00Z</time>
      </trkpt>
      <trkpt lat="59.883166" lon="17.625017">
        <ele>21.2703</ele>
        <time>1970-01-01T01:00:00Z</time>
      </trkpt>
      <trkpt lat="59.8831" lon="17.625167">
        <ele>21.2408</ele>
        <time>1970-01-01T01:00:00Z</time>
      </trkpt>
      <trkpt lat="59.883004" lon="17.625236">
        <ele>21.4806</ele>
        <time>1970-01-01T01:00:00Z</time>
      </trkpt>
      <trkpt lat="59.882911" lon="17.625337">
        <ele>21.739</ele>
        <time>1970-01-01T01:00:00Z</time>
      </trkpt>
      <trkpt lat="59.882823" lon="17.62538">
        <ele>22.3293</ele>
        <time>1970-01-01T01:00:00Z</time>
      </trkpt>
      <trkpt lat="59.882717" lon="17.625377">
        <ele>22.6865</ele>
        <time>1970-01-01T01:00:00Z</time>
      </trkpt>
      <trkpt lat="59.882601" lon="17.625347">
        <ele>23.042</ele>
        <time>1970-01-01T01:00:00Z</time>
      </trkpt>
      <trkpt lat="59.882502" lon="17.625307">
        <ele>23.2892</ele>
        <time>1970-01-01T01:00:00Z</time>
      </trkpt>
      <trkpt lat="59.88241" lon="17.625285">
        <ele>23.1147</ele>
        <time>1970-01-01T01:00:00Z</time>
      </trkpt>
      <trkpt lat="59.882319" lon="17.62527">
        <ele>22.6261</ele>
        <time>1970-01-01T01:00:00Z</time>
      </trkpt>
      <trkpt lat="59.882242" lon="17.6251">
        <ele>22.6672</ele>
        <time>1970-01-01T01:00:00Z</time>
      </trkpt>
      <trkpt lat="59.882186" lon="17.624956">
        <ele>22.3719</ele>
        <time>1970-01-01T01:00:00Z</time>
      </trkpt>
      <trkpt lat="59.882133" lon="17.62481">
        <ele>22.0916</ele>
        <time>1970-01-01T01:00:00Z</time>
      </trkpt>
      <trkpt lat="59.882079" lon="17.624655">
        <ele>21.3924</ele>
        <time>1970-01-01T01:00:00Z</time>
      </trkpt>
      <trkpt lat="59.882" lon="17.624503">
        <ele>20.8967</ele>
        <time>1970-01-01T01:00:00Z</time>
      </trkpt>
      <trkpt lat="59.88191" lon="17.624403">
        <ele>20.0733</ele>
        <time>1970-01-01T01:00:00Z</time>
      </trkpt>
      <trkpt lat="59.881809" lon="17.624303">
        <ele>19.7947</ele>
        <time>1970-01-01T01:00:00Z</time>
      </trkpt>
      <trkpt lat="59.88172" lon="17.624227">
        <ele>18.7985</ele>
        <time>1970-01-01T01:00:00Z</time>
      </trkpt>
      <trkpt lat="59.881623" lon="17.624173">
        <ele>18.1636</ele>
        <time>1970-01-01T01:00:00Z</time>
      </trkpt>
      <trkpt lat="59.881521" lon="17.624095">
        <ele>17.2097</ele>
        <time>1970-01-01T01:00:00Z</time>
      </trkpt>
      <trkpt lat="59.881495" lon="17.623887">
        <ele>16.9843</ele>
        <time>1970-01-01T01:00:00Z</time>
      </trkpt>
      <trkpt lat="59.881525" lon="17.623716">
        <ele>16.064</ele>
        <time>1970-01-01T01:00:00Z</time>
      </trkpt>
      <trkpt lat="59.881563" lon="17.623519">
        <ele>15.6224</ele>
        <time>1970-01-01T01:00:00Z</time>
      </trkpt>
      <trkpt lat="59.88159" lon="17.623333">
        <ele>15.3205</ele>
        <time>1970-01-01T01:00:00Z</time>
      </trkpt>
      <trkpt lat="59.881599" lon="17.623121">
        <ele>14.8402</ele>
        <time>1970-01-01T01:00:00Z</time>
      </trkpt>
      <trkpt lat="59.88158" lon="17.622928">
        <ele>14.16</ele>
        <time>1970-01-01T01:00:00Z</time>
      </trkpt>
      <trkpt lat="59.881562" lon="17.622721">
        <ele>13.0236</ele>
        <time>1970-01-01T01:00:00Z</time>
      </trkpt>
      <trkpt lat="59.881517" lon="17.622531">
        <ele>12.6096</ele>
        <time>1970-01-01T01:00:00Z</time>
      </trkpt>
      <trkpt lat="59.881486" lon="17.622362">
        <ele>12.7</ele>
        <time>1970-01-01T01:00:00Z</time>
      </trkpt>
      <trkpt lat="59.881426" lon="17.622209">
        <ele>12.2008</ele>
        <time>1970-01-01T01:00:00Z</time>
      </trkpt>
      <trkpt lat="59.881375" lon="17.62206">
        <ele>12.5201</ele>
        <time>1970-01-01T01:00:00Z</time>
      </trkpt>
      <trkpt lat="59.881342" lon="17.621847">
        <ele>12.4802</ele>
        <time>1970-01-01T01:00:00Z</time>
      </trkpt>
      <trkpt lat="59.881278" lon="17.621679">
        <ele>11.8926</ele>
        <time>1970-01-01T01:00:00Z</time>
      </trkpt>
      <trkpt lat="59.881216" lon="17.62152">
        <ele>11.7624</ele>
        <time>1970-01-01T01:00:00Z</time>
      </trkpt>
      <trkpt lat="59.881132" lon="17.621363">
        <ele>12.4836</ele>
        <time>1970-01-01T01:00:00Z</time>
      </trkpt>
      <trkpt lat="59.881033" lon="17.62123">
        <ele>13.4435</ele>
        <time>1970-01-01T01:00:00Z</time>
      </trkpt>
      <trkpt lat="59.880946" lon="17.621142">
        <ele>14.6046</ele>
        <time>1970-01-01T01:00:00Z</time>
      </trkpt>
      <trkpt lat="59.880851" lon="17.62104">
        <ele>16.7097</ele>
        <time>1970-01-01T01:00:00Z</time>
      </trkpt>
      <trkpt lat="59.880764" lon="17.620921">
        <ele>17.4547</ele>
        <time>1970-01-01T01:00:00Z</time>
      </trkpt>
      <trkpt lat="59.880683" lon="17.620766">
        <ele>17.9056</ele>
        <time>1970-01-01T01:00:00Z</time>
      </trkpt>
      <trkpt lat="59.880622" lon="17.620628">
        <ele>18.9574</ele>
        <time>1970-01-01T01:00:00Z</time>
      </trkpt>
      <trkpt lat="59.880548" lon="17.620428">
        <ele>19.3616</ele>
        <time>1970-01-01T01:00:00Z</time>
      </trkpt>
      <trkpt lat="59.880507" lon="17.620239">
        <ele>20.4877</ele>
        <time>1970-01-01T01:00:00Z</time>
      </trkpt>
      <trkpt lat="59.88046" lon="17.620071">
        <ele>21.8014</ele>
        <time>1970-01-01T01:00:00Z</time>
      </trkpt>
      <trkpt lat="59.880417" lon="17.61989">
        <ele>22.1154</ele>
        <time>1970-01-01T01:00:00Z</time>
      </trkpt>
      <trkpt lat="59.880371" lon="17.619735">
        <ele>22.2939</ele>
        <time>1970-01-01T01:00:00Z</time>
      </trkpt>
      <trkpt lat="59.880331" lon="17.619534">
        <ele>21.8247</ele>
        <time>1970-01-01T01:00:00Z</time>
      </trkpt>
      <trkpt lat="59.880289" lon="17.619347">
        <ele>21.5924</ele>
        <time>1970-01-01T01:00:00Z</time>
      </trkpt>
      <trkpt lat="59.880226" lon="17.619176">
        <ele>21.0811</ele>
        <time>1970-01-01T01:00:00Z</time>
      </trkpt>
      <trkpt lat="59.880117" lon="17.619246">
        <ele>20.9506</ele>
        <time>1970-01-01T01:00:00Z</time>
      </trkpt>
      <trkpt lat="59.880014" lon="17.619344">
        <ele>20.8205</ele>
        <time>1970-01-01T01:00:00Z</time>
      </trkpt>
      <trkpt lat="59.879923" lon="17.619456">
        <ele>20.9351</ele>
        <time>1970-01-01T01:00:00Z</time>
      </trkpt>
      <trkpt lat="59.879842" lon="17.619535">
        <ele>20.9793</ele>
        <time>1970-01-01T01:00:00Z</time>
      </trkpt>
      <trkpt lat="59.879747" lon="17.619643">
        <ele>20.6947</ele>
        <time>1970-01-01T01:00:00Z</time>
      </trkpt>
      <trkpt lat="59.879661" lon="17.619706">
        <ele>21.1311</ele>
        <time>1970-01-01T01:00:00Z</time>
      </trkpt>
      <trkpt lat="59.879627" lon="17.619896">
        <ele>21.4286</ele>
        <time>1970-01-01T01:00:00Z</time>
      </trkpt>
      <trkpt lat="59.879663" lon="17.620091">
        <ele>21.2735</ele>
        <time>1970-01-01T01:00:00Z</time>
      </trkpt>
      <trkpt lat="59.879694" lon="17.620303">
        <ele>21.7458</ele>
        <time>1970-01-01T01:00:00Z</time>
      </trkpt>
      <trkpt lat="59.879731" lon="17.620515">
        <ele>22.3555</ele>
        <time>1970-01-01T01:00:00Z</time>
      </trkpt>
      <trkpt lat="59.879771" lon="17.620692">
        <ele>22.8289</ele>
        <time>1970-01-01T01:00:00Z</time>
      </trkpt>
      <trkpt lat="59.879812" lon="17.620904">
        <ele>23.0406</ele>
        <time>1970-01-01T01:00:00Z</time>
      </trkpt>
      <trkpt lat="59.879784" lon="17.621121">
        <ele>23.0742</ele>
        <time>1970-01-01T01:00:00Z</time>
      </trkpt>
      <trkpt lat="59.879693" lon="17.621225">
        <ele>22.3608</ele>
        <time>1970-01-01T01:00:00Z</time>
      </trkpt>
      <trkpt lat="59.879619" lon="17.62138">
        <ele>21.6285</ele>
        <time>1970-01-01T01:00:00Z</time>
      </trkpt>
      <trkpt lat="59.879542" lon="17.621507">
        <ele>20.9551</ele>
        <time>1970-01-01T01:00:00Z</time>
      </trkpt>
      <trkpt lat="59.879453" lon="17.621611">
        <ele>20.0391</ele>
        <time>1970-01-01T01:00:00Z</time>
      </trkpt>
      <trkpt lat="59.879358" lon="17.6217">
        <ele>19.9921</ele>
        <time>1970-01-01T01:00:00Z</time>
      </trkpt>
      <trkpt lat="59.87927" lon="17.621778">
        <ele>19.7418</ele>
        <time>1970-01-01T01:00:00Z</time>
      </trkpt>
      <trkpt lat="59.879191" lon="17.621882">
        <ele>19.3902</ele>
        <time>1970-01-01T01:00:00Z</time>
      </trkpt>
      <trkpt lat="59.879104" lon="17.62202">
        <ele>18.8909</ele>
        <time>1970-01-01T01:00:00Z</time>
      </trkpt>
      <trkpt lat="59.879022" lon="17.622145">
        <ele>18.3232</ele>
        <time>1970-01-01T01:00:00Z</time>
      </trkpt>
      <trkpt lat="59.878971" lon="17.622343">
        <ele>18.0367</ele>
        <time>1970-01-01T01:00:00Z</time>
      </trkpt>
      <trkpt lat="59.879002" lon="17.622576">
        <ele>17.9478</ele>
        <time>1970-01-01T01:00:00Z</time>
      </trkpt>
      <trkpt lat="59.87903" lon="17.622747">
        <ele>18.5523</ele>
        <time>1970-01-01T01:00:00Z</time>
      </trkpt>
      <trkpt lat="59.879065" lon="17.62296">
        <ele>20.0786</ele>
        <time>1970-01-01T01:00:00Z</time>
      </trkpt>
      <trkpt lat="59.879095" lon="17.623185">
        <ele>20.9391</ele>
        <time>1970-01-01T01:00:00Z</time>
      </trkpt>
      <trkpt lat="59.879132" lon="17.623399">
        <ele>22.0427</ele>
        <time>1970-01-01T01:00:00Z</time>
      </trkpt>
      <trkpt lat="59.879164" lon="17.623608">
        <ele>22.3388</ele>
        <time>1970-01-01T01:00:00Z</time>
      </trkpt>
      <trkpt lat="59.879178" lon="17.623821">
        <ele>22.8884</ele>
        <time>1970-01-01T01:00:00Z</time>
      </trkpt>
      <trkpt lat="59.879184" lon="17.624023">
        <ele>23.5676</ele>
        <time>1970-01-01T01:00:00Z</time>
      </trkpt>
      <trkpt lat="59.87919" lon="17.624206">
        <ele>23.8122</ele>
        <time>1970-01-01T01:00:00Z</time>
      </trkpt>
      <trkpt lat="59.879213" lon="17.624419">
        <ele>23.956</ele>
        <time>1970-01-01T01:00:00Z</time>
      </trkpt>
      <trkpt lat="59.87923" lon="17.624633">
        <ele>24.2469</ele>
        <time>1970-01-01T01:00:00Z</time>
      </trkpt>
      <trkpt lat="59.87926" lon="17.624855">
        <ele>24.0491</ele>
        <time>1970-01-01T01:00:00Z</time>
      </trkpt>
      <trkpt lat="59.879273" lon="17.625038">
        <ele>23.7175</ele>
        <time>1970-01-01T01:00:00Z</time>
      </trkpt>
      <trkpt lat="59.879294" lon="17.625225">
        <ele>22.9306</ele>
        <time>1970-01-01T01:00:00Z</time>
      </trkpt>
      <trkpt lat="59.879284" lon="17.62541">
        <ele>22.013</ele>
        <time>1970-01-01T01:00:00Z</time>
      </trkpt>
      <trkpt lat="59.879208" lon="17.625534">
        <ele>20.7961</ele>
        <time>1970-01-01T01:00:00Z</time>
      </trkpt>
      <trkpt lat="59.879128" lon="17.625707">
        <ele>20.0773</ele>
        <time>1970-01-01T01:00:00Z</time>
      </trkpt>
      <trkpt lat="59.879049" lon="17.625908">
        <ele>19.2423</ele>
        <time>1970-01-01T01:00:00Z</time>
      </trkpt>
      <trkpt lat="59.879024" lon="17.626082">
        <ele>18.6994</ele>
        <time>1970-01-01T01:00:00Z</time>
      </trkpt>
      <trkpt lat="59.879019" lon="17.626287">
        <ele>18.4231</ele>
        <time>1970-01-01T01:00:00Z</time>
      </trkpt>
      <trkpt lat="59.87904" lon="17.626486">
        <ele>18.5555</ele>
        <time>1970-01-01T01:00:00Z</time>
      </trkpt>
      <trkpt lat="59.879065" lon="17.626671">
        <ele>17.8681</ele>
        <time>1970-01-01T01:00:00Z</time>
      </trkpt>
      <trkpt lat="59.879073" lon="17.626859">
        <ele>17.3631</ele>
        <time>1970-01-01T01:00:00Z</time>
      </trkpt>
      <trkpt lat="59.879063" lon="17.627046">
        <ele>16.3443</ele>
        <time>1970-01-01T01:00:00Z</time>
      </trkpt>
      <trkpt lat="59.879076" lon="17.62725">
        <ele>15.2164</ele>
        <time>1970-01-01T01:00:00Z</time>
      </trkpt>
      <trkpt lat="59.879165" lon="17.627371">
        <ele>14.6428</ele>
        <time>1970-01-01T01:00:00Z</time>
      </trkpt>
      <trkpt lat="59.879269" lon="17.627341">
        <ele>13.6647</ele>
        <time>1970-01-01T01:00:00Z</time>
      </trkpt>
      <trkpt lat="59.879379" lon="17.6273">
        <ele>12.2292</ele>
        <time>1970-01-01T01:00:00Z</time>
      </trkpt>
      <trkpt lat="59.879475" lon="17.627279">
        <ele>11.2426</ele>
        <time>1970-01-01T01:00:00Z</time>
      </trkpt>
      <trkpt lat="59.879566" lon="17.627259">
        <ele>10.1023</ele>
        <time>1970-01-01T01:00:00Z</time>
      </trkpt>
      <trkpt lat="59.879675" lon="17.62722">
        <ele>9.07288</ele>
        <time>1970-01-01T01:00:00Z</time>
      </trkpt>
      <trkpt lat="59.879762" lon="17.627155">
        <ele>7.50789</ele>
        <time>1970-01-01T01:00:00Z</time>
      </trkpt>
      <trkpt lat="59.879849" lon="17.62709">
        <ele>6.45691</ele>
        <time>1970-01-01T01:00:00Z</time>
      </trkpt>
      <trkpt lat="59.879932" lon="17.627016">
        <ele>6.64104</ele>
        <time>1970-01-01T01:00:00Z</time>
      </trkpt>
      <trkpt lat="59.880023" lon="17.626937">
        <ele>7.38558</ele>
        <time>1970-01-01T01:00:00Z</time>
      </trkpt>
      <trkpt lat="59.880115" lon="17.626874">
        <ele>7.8193</ele>
        <time>1970-01-01T01:00:00Z</time>
      </trkpt>
      <trkpt lat="59.880196" lon="17.626782">
        <ele>9.2683</ele>
        <time>1970-01-01T01:00:00Z</time>
      </trkpt>
      <trkpt lat="59.880274" lon="17.626664">
        <ele>10.709</ele>
        <time>1970-01-01T01:00:00Z</time>
      </trkpt>
      <trkpt lat="59.880365" lon="17.626545">
        <ele>12.6394</ele>
        <time>1970-01-01T01:00:00Z</time>
      </trkpt>
      <trkpt lat="59.880448" lon="17.626465">
        <ele>14.0373</ele>
        <time>1970-01-01T01:00:00Z</time>
      </trkpt>
      <trkpt lat="59.880554" lon="17.626462">
        <ele>15.5892</ele>
        <time>1970-01-01T01:00:00Z</time>
      </trkpt>
      <trkpt lat="59.880658" lon="17.626478">
        <ele>17.0029</ele>
        <time>1970-01-01T01:00:00Z</time>
      </trkpt>
      <trkpt lat="59.880808" lon="17.626512">
        <ele>18.7347</ele>
        <time>1970-01-01T01:00:00Z</time>
      </trkpt>
      <trkpt lat="59.880907" lon="17.626495">
        <ele>21.2687</ele>
        <time>1970-01-01T01:00:00Z</time>
      </trkpt>
      <trkpt lat="59.881009" lon="17.626464">
        <ele>22.8884</ele>
        <time>1970-01-01T01:00:00Z</time>
      </trkpt>
      <trkpt lat="59.881106" lon="17.626438">
        <ele>24.3476</ele>
        <time>1970-01-01T01:00:00Z</time>
      </trkpt>
      <trkpt lat="59.881201" lon="17.626398">
        <ele>25.4341</ele>
        <time>1970-01-01T01:00:00Z</time>
      </trkpt>
      <trkpt lat="59.881311" lon="17.626402">
        <ele>24.6888</ele>
        <time>1970-01-01T01:00:00Z</time>
      </trkpt>
      <trkpt lat="59.881297" lon="17.626598">
        <ele>24.1925</ele>
        <time>1970-01-01T01:00:00Z</time>
      </trkpt>
      <trkpt lat="59.881334" lon="17.626771">
        <ele>25.0714</ele>
        <time>1970-01-01T01:00:00Z</time>
      </trkpt>
      <trkpt lat="59.881394" lon="17.626912">
        <ele>26.518</ele>
        <time>1970-01-01T01:00:00Z</time>
      </trkpt>
      <trkpt lat="59.881476" lon="17.627025">
        <ele>27.4999</ele>
        <time>1970-01-01T01:00:00Z</time>
      </trkpt>
      <trkpt lat="59.881576" lon="17.627058">
        <ele>28.8327</ele>
        <time>1970-01-01T01:00:00Z</time>
      </trkpt>
      <trkpt lat="59.881666" lon="17.627129">
        <ele>30.4315</ele>
        <time>1970-01-01T01:00:00Z</time>
      </trkpt>
      <trkpt lat="59.881686" lon="17.627317">
        <ele>30.9149</ele>
        <time>1970-01-01T01:00:00Z</time>
      </trkpt>
      <trkpt lat="59.881698" lon="17.627495">
        <ele>31.0531</ele>
        <time>1970-01-01T01:00:00Z</time>
      </trkpt>
      <trkpt lat="59.881704" lon="17.6277">
        <ele>31.0463</ele>
        <time>1970-01-01T01:00:00Z</time>
      </trkpt>
      <trkpt lat="59.8817" lon="17.627919">
        <ele>31.2371</ele>
        <time>1970-01-01T01:00:00Z</time>
      </trkpt>
      <trkpt lat="59.881711" lon="17.628101">
        <ele>31.6748</ele>
        <time>1970-01-01T01:00:00Z</time>
      </trkpt>
      <trkpt lat="59.881801" lon="17.628169">
        <ele>32.114</ele>
        <time>1970-01-01T01:00:00Z</time>
      </trkpt>
      <trkpt lat="59.881914" lon="17.628191">
        <ele>31.4652</ele>
        <time>1970-01-01T01:00:00Z</time>
      </trkpt>
      <trkpt lat="59.882009" lon="17.628211">
        <ele>30.227</ele>
        <time>1970-01-01T01:00:00Z</time>
      </trkpt>
      <trkpt lat="59.882124" lon="17.628144">
        <ele>28.4776</ele>
        <time>1970-01-01T01:00:00Z</time>
      </trkpt>
      <trkpt lat="59.882211" lon="17.628046">
        <ele>26.4145</ele>
        <time>1970-01-01T01:00:00Z</time>
      </trkpt>
      <trkpt lat="59.882302" lon="17.627919">
        <ele>23.9315</ele>
        <time>1970-01-01T01:00:00Z</time>
      </trkpt>
      <trkpt lat="59.882361" lon="17.627782">
        <ele>22.0807</ele>
        <time>1970-01-01T01:00:00Z</time>
      </trkpt>
      <trkpt lat="59.882416" lon="17.627576">
        <ele>20.5799</ele>
        <time>1970-01-01T01:00:00Z</time>
      </trkpt>
      <trkpt lat="59.882458" lon="17.62738">
        <ele>19.3399</ele>
        <time>1970-01-01T01:00:00Z</time>
      </trkpt>
      <trkpt lat="59.882486" lon="17.627198">
        <ele>18.6418</ele>
        <time>1970-01-01T01:00:00Z</time>
      </trkpt>
      <trkpt lat="59.882508" lon="17.626989">
        <ele>18.5127</ele>
        <time>1970-01-01T01:00:00Z</time>
      </trkpt>
      <trkpt lat="59.882527" lon="17.62678">
        <ele>17.7038</ele>
        <time>1970-01-01T01:00:00Z</time>
      </trkpt>
      <trkpt lat="59.882543" lon="17.626556">
        <ele>16.3238</ele>
        <time>1970-01-01T01:00:00Z</time>
      </trkpt>
      <trkpt lat="59.882526" lon="17.626372">
        <ele>14.9202</ele>
        <time>1970-01-01T01:00:00Z</time>
      </trkpt>
      <trkpt lat="59.882504" lon="17.626194">
        <ele>14.1265</ele>
        <time>1970-01-01T01:00:00Z</time>
      </trkpt>
      <trkpt lat="59.882536" lon="17.625994">
        <ele>13.3243</ele>
        <time>1970-01-01T01:00:00Z</time>
      </trkpt>
      <trkpt lat="59.882608" lon="17.625867">
        <ele>12.9219</ele>
        <time>1970-01-01T01:00:00Z</time>
      </trkpt>
      <trkpt lat="59.882693" lon="17.625779">
        <ele>12.6547</ele>
        <time>1970-01-01T01:00:00Z</time>
      </trkpt>
      <trkpt lat="59.882775" lon="17.625632">
        <ele>13.0117</ele>
        <time>1970-01-01T01:00:00Z</time>
      </trkpt>
      <trkpt lat="59.882856" lon="17.625522">
        <ele>13.0511</ele>
        <time>1970-01-01T01:00:00Z</time>
      </trkpt>
      <trkpt lat="59.882948" lon="17.625417">
        <ele>13.0403</ele>
        <time>1970-01-01T01:00:00Z</time>
      </trkpt>
      <trkpt lat="59.883031" lon="17.625298">
        <ele>12.53</ele>
        <time>1970-01-01T01:00:00Z</time>
      </trkpt>
      <trkpt lat="59.883105" lon="17.625167">
        <ele>13.0564</ele>
        <time>1970-01-01T01:00:00Z</time>
      </trkpt>
      <trkpt lat="59.883165" lon="17.625023">
        <ele>13.7455</ele>
        <time>1970-01-01T01:00:00Z</time>
      </trkpt>
      <trkpt lat="59.883238" lon="17.624873">
        <ele>14.3959</ele>
        <time>1970-01-01T01:00:00Z</time>
      </trkpt>
      <trkpt lat="59.883312" lon="17.624729">
        <ele>14.9561</ele>
        <time>1970-01-01T01:00:00Z</time>
      </trkpt>
      <trkpt lat="59.883378" lon="17.624585">
        <ele>15.4928</ele>
        <time>1970-01-01T01:00:00Z</time>
      </trkpt>
      <trkpt lat="59.883447" lon="17.624409">
        <ele>15.7501</ele>
        <time>1970-01-01T01:00:00Z</time>
      </trkpt>
      <trkpt lat="59.883541" lon="17.624289">
        <ele>15.6025</ele>
        <time>1970-01-01T01:00:00Z</time>
      </trkpt>
      <trkpt lat="59.883625" lon="17.624211">
        <ele>14.923</ele>
        <time>1970-01-01T01:00:00Z</time>
      </trkpt>
      <trkpt lat="59.883702" lon="17.624103">
        <ele>14.6567</ele>
        <time>1970-01-01T01:00:00Z</time>
      </trkpt>
      <trkpt lat="59.883792" lon="17.623982">
        <ele>14.1469</ele>
        <time>1970-01-01T01:00:00Z</time>
      </trkpt>
      <trkpt lat="59.883869" lon="17.623868">
        <ele>14.106</ele>
        <time>1970-01-01T01:00:00Z</time>
      </trkpt>
      <trkpt lat="59.88394" lon="17.623746">
        <ele>13.9535</ele>
        <time>1970-01-01T01:00:00Z</time>
      </trkpt>
      <trkpt lat="59.884019" lon="17.623635">
        <ele>14.2119</ele>
        <time>1970-01-01T01:00:00Z</time>
      </trkpt>
      <trkpt lat="59.884123" lon="17.623534">
        <ele>14.6219</ele>
        <time>1970-01-01T01:00:00Z</time>
      </trkpt>
      <trkpt lat="59.884227" lon="17.623494">
        <ele>15.1613</ele>
        <time>1970-01-01T01:00:00Z</time>
      </trkpt>
      <trkpt lat="59.884343" lon="17.623464">
        <ele>15.6602</ele>
        <time>1970-01-01T01:00:00Z</time>
      </trkpt>
      <trkpt lat="59.884441" lon="17.623406">
        <ele>16.3767</ele>
        <time>1970-01-01T01:00:00Z</time>
      </trkpt>
      <trkpt lat="59.884545" lon="17.623298">
        <ele>17.1511</ele>
        <time>1970-01-01T01:00:00Z</time>
      </trkpt>
      <trkpt lat="59.884635" lon="17.623203">
        <ele>17.3902</ele>
        <time>1970-01-01T01:00:00Z</time>
      </trkpt>
      <trkpt lat="59.884721" lon="17.623097">
        <ele>17.3505</ele>
        <time>1970-01-01T01:00:00Z</time>
      </trkpt>
      <trkpt lat="59.884801" lon="17.622998">
        <ele>17.7771</ele>
        <time>1970-01-01T01:00:00Z</time>
      </trkpt>
      <trkpt lat="59.884896" lon="17.622897">
        <ele>18.0512</ele>
        <time>1970-01-01T01:00:00Z</time>
      </trkpt>
      <trkpt lat="59.884981" lon="17.622805">
        <ele>17.9347</ele>
        <time>1970-01-01T01:00:00Z</time>
      </trkpt>
      <trkpt lat="59.885093" lon="17.622742">
        <ele>17.4828</ele>
        <time>1970-01-01T01:00:00Z</time>
      </trkpt>
      <trkpt lat="59.885199" lon="17.622732">
        <ele>17.1268</ele>
        <time>1970-01-01T01:00:00Z</time>
      </trkpt>
      <trkpt lat="59.885304" lon="17.622731">
        <ele>16.865</ele>
        <time>1970-01-01T01:00:00Z</time>
      </trkpt>
      <trkpt lat="59.885408" lon="17.622741">
        <ele>16.8291</ele>
        <time>1970-01-01T01:00:00Z</time>
      </trkpt>
      <trkpt lat="59.885498" lon="17.622683">
        <ele>16.2402</ele>
        <time>1970-01-01T01:00:00Z</time>
      </trkpt>
      <trkpt lat="59.885594" lon="17.622546">
        <ele>15.8723</ele>
        <time>1970-01-01T01:00:00Z</time>
      </trkpt>
      <trkpt lat="59.88567" lon="17.622399">
        <ele>16.0898</ele>
        <time>1970-01-01T01:00:00Z</time>
      </trkpt>
      <trkpt lat="59.885753" lon="17.622273">
        <ele>16.6224</ele>
        <time>1970-01-01T01:00:00Z</time>
      </trkpt>
      <trkpt lat="59.885841" lon="17.622159">
        <ele>17.2859</ele>
        <time>1970-01-01T01:00:00Z</time>
      </trkpt>
      <trkpt lat="59.885958" lon="17.622086">
        <ele>18.3048</ele>
        <time>1970-01-01T01:00:00Z</time>
      </trkpt>
      <trkpt lat="59.886056" lon="17.622054">
        <ele>19.2095</ele>
        <time>1970-01-01T01:00:00Z</time>
      </trkpt>
      <trkpt lat="59.88616" lon="17.622003">
        <ele>20.2683</ele>
        <time>1970-01-01T01:00:00Z</time>
      </trkpt>
      <trkpt lat="59.886263" lon="17.621948">
        <ele>21.3632</ele>
        <time>1970-01-01T01:00:00Z</time>
      </trkpt>
      <trkpt lat="59.886367" lon="17.62187">
        <ele>22.1186</ele>
        <time>1970-01-01T01:00:00Z</time>
      </trkpt>
      <trkpt lat="59.886455" lon="17.621815">
        <ele>22.6402</ele>
        <time>1970-01-01T01:00:00Z</time>
      </trkpt>
      <trkpt lat="59.886553" lon="17.621772">
        <ele>22.4489</ele>
        <time>1970-01-01T01:00:00Z</time>
      </trkpt>
      <trkpt lat="59.886648" lon="17.621723">
        <ele>21.9377</ele>
        <time>1970-01-01T01:00:00Z</time>
      </trkpt>
      <trkpt lat="59.886743" lon="17.621686">
        <ele>22.148</ele>
        <time>1970-01-01T01:00:00Z</time>
      </trkpt>
      <trkpt lat="59.886843" lon="17.621645">
        <ele>22.24</ele>
        <time>1970-01-01T01:00:00Z</time>
      </trkpt>
      <trkpt lat="59.886936" lon="17.621587">
        <ele>22.8275</ele>
        <time>1970-01-01T01:00:00Z</time>
      </trkpt>
      <trkpt lat="59.887036" lon="17.621574">
        <ele>22.405</ele>
        <time>1970-01-01T01:00:00Z</time>
      </trkpt>
      <trkpt lat="59.887159" lon="17.621637">
        <ele>22.6775</ele>
        <time>1970-01-01T01:00:00Z</time>
      </trkpt>
      <trkpt lat="59.887262" lon="17.621675">
        <ele>22.6879</ele>
        <time>1970-01-01T01:00:00Z</time>
      </trkpt>
      <trkpt lat="59.887339" lon="17.621778">
        <ele>22.4794</ele>
        <time>1970-01-01T01:00:00Z</time>
      </trkpt>
      <trkpt lat="59.887404" lon="17.621908">
        <ele>22.1916</ele>
        <time>1970-01-01T01:00:00Z</time>
      </trkpt>
      <trkpt lat="59.887477" lon="17.622041">
        <ele>21.9438</ele>
        <time>1970-01-01T01:00:00Z</time>
      </trkpt>
      <trkpt lat="59.887554" lon="17.622157">
        <ele>23.0582</ele>
        <time>1970-01-01T01:00:00Z</time>
      </trkpt>
      <trkpt lat="59.88764" lon="17.622263">
        <ele>24.7191</ele>
        <time>1970-01-01T01:00:00Z</time>
      </trkpt>
      <trkpt lat="59.887657" lon="17.6223">
        <ele>25.4546</ele>
        <time>1970-01-01T01:00:00Z</time>
      </trkpt>
      <trkpt lat="59.887721" lon="17.622419">
        <ele>37.2602</ele>
        <time>1970-01-01T01:00:00Z</time>
      </trkpt>
      <trkpt lat="59.887764" lon="17.622599">
        <ele>37.188</ele>
        <time>1970-01-01T01:00:00Z</time>
      </trkpt>
      <trkpt lat="59.887815" lon="17.622793">
        <ele>36.9918</ele>
        <time>1970-01-01T01:00:00Z</time>
      </trkpt>
      <trkpt lat="59.887881" lon="17.622994">
        <ele>36.2784</ele>
        <time>1970-01-01T01:00:00Z</time>
      </trkpt>
      <trkpt lat="59.887972" lon="17.623095">
        <ele>34.9953</ele>
        <time>1970-01-01T01:00:00Z</time>
      </trkpt>
      <trkpt lat="59.888067" lon="17.62316">
        <ele>33.5391</ele>
        <time>1970-01-01T01:00:00Z</time>
      </trkpt>
      <trkpt lat="59.888174" lon="17.623186">
        <ele>31.8063</ele>
        <time>1970-01-01T01:00:00Z</time>
      </trkpt>
      <trkpt lat="59.888281" lon="17.623184">
        <ele>30.0836</ele>
        <time>1970-01-01T01:00:00Z</time>
      </trkpt>
      <trkpt lat="59.888397" lon="17.623174">
        <ele>28.5555</ele>
        <time>1970-01-01T01:00:00Z</time>
      </trkpt>
      <trkpt lat="59.888507" lon="17.623114">
        <ele>26.8232</ele>
        <time>1970-01-01T01:00:00Z</time>
      </trkpt>
      <trkpt lat="59.888611" lon="17.623073">
        <ele>24.9823</ele>
        <time>1970-01-01T01:00:00Z</time>
      </trkpt>
      <trkpt lat="59.888709" lon="17.623038">
        <ele>22.7877</ele>
        <time>1970-01-01T01:00:00Z</time>
      </trkpt>
      <trkpt lat="59.888803" lon="17.623029">
        <ele>20.8444</ele>
        <time>1970-01-01T01:00:00Z</time>
      </trkpt>
      <trkpt lat="59.888899" lon="17.623161">
        <ele>19.2027</ele>
        <time>1970-01-01T01:00:00Z</time>
      </trkpt>
      <trkpt lat="59.88898" lon="17.623313">
        <ele>17.5545</ele>
        <time>1970-01-01T01:00:00Z</time>
      </trkpt>
      <trkpt lat="59.889053" lon="17.623435">
        <ele>16.8352</ele>
        <time>1970-01-01T01:00:00Z</time>
      </trkpt>
      <trkpt lat="59.889118" lon="17.623584">
        <ele>16.2889</ele>
        <time>1970-01-01T01:00:00Z</time>
      </trkpt>
      <trkpt lat="59.889219" lon="17.623672">
        <ele>16.0672</ele>
        <time>1970-01-01T01:00:00Z</time>
      </trkpt>
      <trkpt lat="59.889317" lon="17.623798">
        <ele>16.2287</ele>
        <time>1970-01-01T01:00:00Z</time>
      </trkpt>
      <trkpt lat="59.889382" lon="17.623967">
        <ele>16.715</ele>
        <time>1970-01-01T01:00:00Z</time>
      </trkpt>
      <trkpt lat="59.889477" lon="17.624089">
        <ele>16.7428</ele>
        <time>1970-01-01T01:00:00Z</time>
      </trkpt>
      <trkpt lat="59.889576" lon="17.62412">
        <ele>17.244</ele>
        <time>1970-01-01T01:00:00Z</time>
      </trkpt>
      <trkpt lat="59.889671" lon="17.624134">
        <ele>17.7158</ele>
        <time>1970-01-01T01:00:00Z</time>
      </trkpt>
      <trkpt lat="59.88977" lon="17.624138">
        <ele>17.4875</ele>
        <time>1970-01-01T01:00:00Z</time>
      </trkpt>
      <trkpt lat="59.889887" lon="17.624136">
        <ele>16.5556</ele>
        <time>1970-01-01T01:00:00Z</time>
      </trkpt>
      <trkpt lat="59.889991" lon="17.624115">
        <ele>16.2331</ele>
        <time>1970-01-01T01:00:00Z</time>
      </trkpt>
      <trkpt lat="59.890099" lon="17.624066">
        <ele>15.9492</ele>
        <time>1970-01-01T01:00:00Z</time>
      </trkpt>
      <trkpt lat="59.890195" lon="17.623982">
        <ele>15.257</ele>
        <time>1970-01-01T01:00:00Z</time>
      </trkpt>
      <trkpt lat="59.890266" lon="17.623848">
        <ele>14.719</ele>
        <time>1970-01-01T01:00:00Z</time>
      </trkpt>
      <trkpt lat="59.890337" lon="17.62372">
        <ele>13.024</ele>
        <time>1970-01-01T01:00:00Z</time>
      </trkpt>
      <trkpt lat="59.890412" lon="17.623595">
        <ele>11.3728</ele>
        <time>1970-01-01T01:00:00Z</time>
      </trkpt>
      <trkpt lat="59.890489" lon="17.62349">
        <ele>9.54604</ele>
        <time>1970-01-01T01:00:00Z</time>
      </trkpt>
      <trkpt lat="59.890558" lon="17.62336">
        <ele>7.51621</ele>
        <time>1970-01-01T01:00:00Z</time>
      </trkpt>
      <trkpt lat="59.890648" lon="17.623214">
        <ele>6.86783</ele>
        <time>1970-01-01T01:00:00Z</time>
      </trkpt>
      <trkpt lat="59.890718" lon="17.623071">
        <ele>5.90319</ele>
        <time>1970-01-01T01:00:00Z</time>
      </trkpt>
      <trkpt lat="59.890797" lon="17.622942">
        <ele>5.46266</ele>
        <time>1970-01-01T01:00:00Z</time>
      </trkpt>
      <trkpt lat="59.890882" lon="17.622844">
        <ele>5.30585</ele>
        <time>1970-01-01T01:00:00Z</time>
      </trkpt>
      <trkpt lat="59.890957" lon="17.622739">
        <ele>5.60503</ele>
        <time>1970-01-01T01:00:00Z</time>
      </trkpt>
      <trkpt lat="59.891044" lon="17.622656">
        <ele>6.86346</ele>
        <time>1970-01-01T01:00:00Z</time>
      </trkpt>
      <trkpt lat="59.891132" lon="17.62255">
        <ele>8.31702</ele>
        <time>1970-01-01T01:00:00Z</time>
      </trkpt>
      <trkpt lat="59.891216" lon="17.622461">
        <ele>10.228</ele>
        <time>1970-01-01T01:00:00Z</time>
      </trkpt>
      <trkpt lat="59.891291" lon="17.622351">
        <ele>11.7196</ele>
        <time>1970-01-01T01:00:00Z</time>
      </trkpt>
      <trkpt lat="59.891381" lon="17.622256">
        <ele>13.4216</ele>
        <time>1970-01-01T01:00:00Z</time>
      </trkpt>
      <trkpt lat="59.891483" lon="17.622193">
        <ele>15.1111</ele>
        <time>1970-01-01T01:00:00Z</time>
      </trkpt>
      <trkpt lat="59.891577" lon="17.622092">
        <ele>15.6258</ele>
        <time>1970-01-01T01:00:00Z</time>
      </trkpt>
      <trkpt lat="59.891644" lon="17.621956">
        <ele>17.2604</ele>
        <time>1970-01-01T01:00:00Z</time>
      </trkpt>
      <trkpt lat="59.891706" lon="17.621794">
        <ele>18.288</ele>
        <time>1970-01-01T01:00:00Z</time>
      </trkpt>
      <trkpt lat="59.891757" lon="17.621609">
        <ele>19.0469</ele>
        <time>1970-01-01T01:00:00Z</time>
      </trkpt>
      <trkpt lat="59.891826" lon="17.621456">
        <ele>20.1723</ele>
        <time>1970-01-01T01:00:00Z</time>
      </trkpt>
      <trkpt lat="59.891927" lon="17.621372">
        <ele>20.2308</ele>
        <time>1970-01-01T01:00:00Z</time>
      </trkpt>
      <trkpt lat="59.892036" lon="17.621354">
        <ele>20.6124</ele>
        <time>1970-01-01T01:00:00Z</time>
      </trkpt>
      <trkpt lat="59.892129" lon="17.621291">
        <ele>21.8314</ele>
        <time>1970-01-01T01:00:00Z</time>
      </trkpt>
      <trkpt lat="59.892222" lon="17.621307">
        <ele>22.6219</ele>
        <time>1970-01-01T01:00:00Z</time>
      </trkpt>
      <trkpt lat="59.892312" lon="17.621325">
        <ele>23.49</ele>
        <time>1970-01-01T01:00:00Z</time>
      </trkpt>
      <trkpt lat="59.892406" lon="17.621337">
        <ele>24.1309</ele>
        <time>1970-01-01T01:00:00Z</time>
      </trkpt>
      <trkpt lat="59.892511" lon="17.621385">
        <ele>25.0222</ele>
        <time>1970-01-01T01:00:00Z</time>
      </trkpt>
      <trkpt lat="59.892615" lon="17.62144">
        <ele>26.3763</ele>
        <time>1970-01-01T01:00:00Z</time>
      </trkpt>
      <trkpt lat="59.892712" lon="17.62154">
        <ele>27.7694</ele>
        <time>1970-01-01T01:00:00Z</time>
      </trkpt>
      <trkpt lat="59.892801" lon="17.621627">
        <ele>29.2585</ele>
        <time>1970-01-01T01:00:00Z</time>
      </trkpt>
      <trkpt lat="59.892895" lon="17.621662">
        <ele>29.3658</ele>
        <time>1970-01-01T01:00:00Z</time>
      </trkpt>
      <trkpt lat="59.892994" lon="17.621689">
        <ele>30.6938</ele>
        <time>1970-01-01T01:00:00Z</time>
      </trkpt>
      <trkpt lat="59.893091" lon="17.621717">
        <ele>32.0975</ele>
        <time>1970-01-01T01:00:00Z</time>
      </trkpt>
      <trkpt lat="59.893186" lon="17.621696">
        <ele>32.7301</ele>
        <time>1970-01-01T01:00:00Z</time>
      </trkpt>
      <trkpt lat="59.893296" lon="17.621655">
        <ele>33.8512</ele>
        <time>1970-01-01T01:00:00Z</time>
      </trkpt>
      <trkpt lat="59.893387" lon="17.621629">
        <ele>35.7224</ele>
        <time>1970-01-01T01:00:00Z</time>
      </trkpt>
      <trkpt lat="59.89348" lon="17.621617">
        <ele>37.95</ele>
        <time>1970-01-01T01:00:00Z</time>
      </trkpt>
      <trkpt lat="59.893579" lon="17.62163">
        <ele>40.1434</ele>
        <time>1970-01-01T01:00:00Z</time>
      </trkpt>
      <trkpt lat="59.893675" lon="17.621613">
        <ele>41.6015</ele>
        <time>1970-01-01T01:00:00Z</time>
      </trkpt>
      <trkpt lat="59.893772" lon="17.621555">
        <ele>42.7599</ele>
        <time>1970-01-01T01:00:00Z</time>
      </trkpt>
      <trkpt lat="59.893883" lon="17.621545">
        <ele>43.9349</ele>
        <time>1970-01-01T01:00:00Z</time>
      </trkpt>
      <trkpt lat="59.893991" lon="17.621568">
        <ele>45.4854</ele>
        <time>1970-01-01T01:00:00Z</time>
      </trkpt>
      <trkpt lat="59.894086" lon="17.621658">
        <ele>46.725</ele>
        <time>1970-01-01T01:00:00Z</time>
      </trkpt>
      <trkpt lat="59.8942" lon="17.621716">
        <ele>46.5089</ele>
        <time>1970-01-01T01:00:00Z</time>
      </trkpt>
      <trkpt lat="59.894289" lon="17.621799">
        <ele>46.2589</ele>
        <time>1970-01-01T01:00:00Z</time>
      </trkpt>
      <trkpt lat="59.894387" lon="17.62189">
        <ele>45.9169</ele>
        <time>1970-01-01T01:00:00Z</time>
      </trkpt>
      <trkpt lat="59.894491" lon="17.621933">
        <ele>45.3091</ele>
        <time>1970-01-01T01:00:00Z</time>
      </trkpt>
      <trkpt lat="59.894586" lon="17.621979">
        <ele>44.8723</ele>
        <time>1970-01-01T01:00:00Z</time>
      </trkpt>
      <trkpt lat="59.894683" lon="17.622032">
        <ele>44.5806</ele>
        <time>1970-01-01T01:00:00Z</time>
      </trkpt>
      <trkpt lat="59.894781" lon="17.622047">
        <ele>43.4429</ele>
        <time>1970-01-01T01:00:00Z</time>
      </trkpt>
      <trkpt lat="59.894887" lon="17.622001">
        <ele>43.3438</ele>
        <time>1970-01-01T01:00:00Z</time>
      </trkpt>
      <trkpt lat="59.894983" lon="17.62194">
        <ele>43.2934</ele>
        <time>1970-01-01T01:00:00Z</time>
      </trkpt>
      <trkpt lat="59.895075" lon="17.62195">
        <ele>42.6891</ele>
        <time>1970-01-01T01:00:00Z</time>
      </trkpt>
      <trkpt lat="59.895183" lon="17.621974">
        <ele>41.6185</ele>
        <time>1970-01-01T01:00:00Z</time>
      </trkpt>
      <trkpt lat="59.895292" lon="17.621972">
        <ele>41.0066</ele>
        <time>1970-01-01T01:00:00Z</time>
      </trkpt>
      <trkpt lat="59.895385" lon="17.621975">
        <ele>40.1036</ele>
        <time>1970-01-01T01:00:00Z</time>
      </trkpt>
      <trkpt lat="59.895486" lon="17.622042">
        <ele>39.0258</ele>
        <time>1970-01-01T01:00:00Z</time>
      </trkpt>
      <trkpt lat="59.89558" lon="17.622135">
        <ele>37.8627</ele>
        <time>1970-01-01T01:00:00Z</time>
      </trkpt>
      <trkpt lat="59.895663" lon="17.622281">
        <ele>36.2269</ele>
        <time>1970-01-01T01:00:00Z</time>
      </trkpt>
      <trkpt lat="59.895745" lon="17.62243">
        <ele>34.6698</ele>
        <time>1970-01-01T01:00:00Z</time>
      </trkpt>
      <trkpt lat="59.895834" lon="17.622506">
        <ele>33.5385</ele>
        <time>1970-01-01T01:00:00Z</time>
      </trkpt>
      <trkpt lat="59.895924" lon="17.622629">
        <ele>31.6693</ele>
        <time>1970-01-01T01:00:00Z</time>
      </trkpt>
      <trkpt lat="59.896006" lon="17.622759">
        <ele>30.5695</ele>
        <time>1970-01-01T01:00:00Z</time>
      </trkpt>
      <trkpt lat="59.896096" lon="17.622876">
        <ele>29.7438</ele>
        <time>1970-01-01T01:00:00Z</time>
      </trkpt>
      <trkpt lat="59.896161" lon="17.623005">
        <ele>28.8185</ele>
        <time>1970-01-01T01:00:00Z</time>
      </trkpt>
      <trkpt lat="59.896159" lon="17.623191">
        <ele>27.9664</ele>
        <time>1970-01-01T01:00:00Z</time>
      </trkpt>
      <trkpt lat="59.896099" lon="17.62334">
        <ele>27.52</ele>
        <time>1970-01-01T01:00:00Z</time>
      </trkpt>
      <trkpt lat="59.896016" lon="17.623484">
        <ele>26.7735</ele>
        <time>1970-01-01T01:00:00Z</time>
      </trkpt>
      <trkpt lat="59.895935" lon="17.6236">
        <ele>25.8797</ele>
        <time>1970-01-01T01:00:00Z</time>
      </trkpt>
      <trkpt lat="59.895844" lon="17.623699">
        <ele>25.5909</ele>
        <time>1970-01-01T01:00:00Z</time>
      </trkpt>
      <trkpt lat="59.895768" lon="17.62385">
        <ele>24.3761</ele>
        <time>1970-01-01T01:00:00Z</time>
      </trkpt>
      <trkpt lat="59.895671" lon="17.623978">
        <ele>23.5375</ele>
        <time>1970-01-01T01:00:00Z</time>
      </trkpt>
      <trkpt lat="59.895588" lon="17.624095">
        <ele>23.1588</ele>
        <time>1970-01-01T01:00:00Z</time>
      </trkpt>
      <trkpt lat="59.895535" lon="17.624248">
        <ele>21.4911</ele>
        <time>1970-01-01T01:00:00Z</time>
      </trkpt>
      <trkpt lat="59.895509" lon="17.624441">
        <ele>19.89</ele>
        <time>1970-01-01T01:00:00Z</time>
      </trkpt>
      <trkpt lat="59.895497" lon="17.624624">
        <ele>18.639</ele>
        <time>1970-01-01T01:00:00Z</time>
      </trkpt>
      <trkpt lat="59.89548" lon="17.624861">
        <ele>17.3177</ele>
        <time>1970-01-01T01:00:00Z</time>
      </trkpt>
      <trkpt lat="59.895477" lon="17.625062">
        <ele>16.4624</ele>
        <time>1970-01-01T01:00:00Z</time>
      </trkpt>
      <trkpt lat="59.895555" lon="17.625207">
        <ele>16.5319</ele>
        <time>1970-01-01T01:00:00Z</time>
      </trkpt>
      <trkpt lat="59.895618" lon="17.625358">
        <ele>16.4237</ele>
        <time>1970-01-01T01:00:00Z</time>
      </trkpt>
      <trkpt lat="59.8957" lon="17.625457">
        <ele>16.0971</ele>
        <time>1970-01-01T01:00:00Z</time>
      </trkpt>
      <trkpt lat="59.895789" lon="17.62552">
        <ele>16.9891</ele>
        <time>1970-01-01T01:00:00Z</time>
      </trkpt>
      <trkpt lat="59.895884" lon="17.625585">
        <ele>17.0544</ele>
        <time>1970-01-01T01:00:00Z</time>
      </trkpt>
      <trkpt lat="59.895996" lon="17.625586">
        <ele>17.6275</ele>
        <time>1970-01-01T01:00:00Z</time>
      </trkpt>
      <trkpt lat="59.896089" lon="17.62561">
        <ele>18.1055</ele>
        <time>1970-01-01T01:00:00Z</time>
      </trkpt>
      <trkpt lat="59.89618" lon="17.625645">
        <ele>19.1361</ele>
        <time>1970-01-01T01:00:00Z</time>
      </trkpt>
      <trkpt lat="59.896275" lon="17.625711">
        <ele>19.7655</ele>
        <time>1970-01-01T01:00:00Z</time>
      </trkpt>
      <trkpt lat="59.896367" lon="17.625744">
        <ele>20.6234</ele>
        <time>1970-01-01T01:00:00Z</time>
      </trkpt>
      <trkpt lat="59.896462" lon="17.625809">
        <ele>20.5001</ele>
        <time>1970-01-01T01:00:00Z</time>
      </trkpt>
      <trkpt lat="59.896557" lon="17.625874">
        <ele>19.8004</ele>
        <time>1970-01-01T01:00:00Z</time>
      </trkpt>
      <trkpt lat="59.896652" lon="17.625908">
        <ele>19.4074</ele>
        <time>1970-01-01T01:00:00Z</time>
      </trkpt>
      <trkpt lat="59.896757" lon="17.625946">
        <ele>18.9233</ele>
        <time>1970-01-01T01:00:00Z</time>
      </trkpt>
      <trkpt lat="59.896845" lon="17.626016">
        <ele>18.1517</ele>
        <time>1970-01-01T01:00:00Z</time>
      </trkpt>
      <trkpt lat="59.896926" lon="17.626094">
        <ele>18.2764</ele>
        <time>1970-01-01T01:00:00Z</time>
      </trkpt>
      <trkpt lat="59.89701" lon="17.626185">
        <ele>18.263</ele>
        <time>1970-01-01T01:00:00Z</time>
      </trkpt>
      <trkpt lat="59.89711" lon="17.626276">
        <ele>18.2231</ele>
        <time>1970-01-01T01:00:00Z</time>
      </trkpt>
      <trkpt lat="59.897193" lon="17.626365">
        <ele>18.0306</ele>
        <time>1970-01-01T01:00:00Z</time>
      </trkpt>
      <trkpt lat="59.897275" lon="17.626484">
        <ele>18.2479</ele>
        <time>1970-01-01T01:00:00Z</time>
      </trkpt>
      <trkpt lat="59.897354" lon="17.626582">
        <ele>18.4802</ele>
        <time>1970-01-01T01:00:00Z</time>
      </trkpt>
      <trkpt lat="59.897433" lon="17.626695">
        <ele>19.0261</ele>
        <time>1970-01-01T01:00:00Z</time>
      </trkpt>
      <trkpt lat="59.897507" lon="17.626824">
        <ele>20.4517</ele>
        <time>1970-01-01T01:00:00Z</time>
      </trkpt>
      <trkpt lat="59.897581" lon="17.626954">
        <ele>21.4391</ele>
        <time>1970-01-01T01:00:00Z</time>
      </trkpt>
      <trkpt lat="59.897656" lon="17.627101">
        <ele>22.5707</ele>
        <time>1970-01-01T01:00:00Z</time>
      </trkpt>
      <trkpt lat="59.897711" lon="17.627264">
        <ele>23.036</ele>
        <time>1970-01-01T01:00:00Z</time>
      </trkpt>
      <trkpt lat="59.897774" lon="17.627434">
        <ele>23.4258</ele>
        <time>1970-01-01T01:00:00Z</time>
      </trkpt>
      <trkpt lat="59.897825" lon="17.627591">
        <ele>23.7265</ele>
        <time>1970-01-01T01:00:00Z</time>
      </trkpt>
      <trkpt lat="59.897899" lon="17.627759">
        <ele>24.034</ele>
        <time>1970-01-01T01:00:00Z</time>
      </trkpt>
      <trkpt lat="59.897952" lon="17.627941">
        <ele>24.0693</ele>
        <time>1970-01-01T01:00:00Z</time>
      </trkpt>
      <trkpt lat="59.897998" lon="17.628122">
        <ele>24.0842</ele>
        <time>1970-01-01T01:00:00Z</time>
      </trkpt>
      <trkpt lat="59.898035" lon="17.628292">
        <ele>24.1859</ele>
        <time>1970-01-01T01:00:00Z</time>
      </trkpt>
      <trkpt lat="59.898059" lon="17.628497">
        <ele>24.302</ele>
        <time>1970-01-01T01:00:00Z</time>
      </trkpt>
      <trkpt lat="59.89809" lon="17.628669">
        <ele>24.0637</ele>
        <time>1970-01-01T01:00:00Z</time>
      </trkpt>
      <trkpt lat="59.898134" lon="17.628878">
        <ele>24.3485</ele>
        <time>1970-01-01T01:00:00Z</time>
      </trkpt>
      <trkpt lat="59.898183" lon="17.629087">
        <ele>24.2408</ele>
        <time>1970-01-01T01:00:00Z</time>
      </trkpt>
      <trkpt lat="59.898236" lon="17.629292">
        <ele>24.5763</ele>
        <time>1970-01-01T01:00:00Z</time>
      </trkpt>
      <trkpt lat="59.898293" lon="17.629466">
        <ele>24.7729</ele>
        <time>1970-01-01T01:00:00Z</time>
      </trkpt>
      <trkpt lat="59.898346" lon="17.629641">
        <ele>24.721</ele>
        <time>1970-01-01T01:00:00Z</time>
      </trkpt>
      <trkpt lat="59.898393" lon="17.629812">
        <ele>25.0842</ele>
        <time>1970-01-01T01:00:00Z</time>
      </trkpt>
      <trkpt lat="59.898448" lon="17.629966">
        <ele>25.4296</ele>
        <time>1970-01-01T01:00:00Z</time>
      </trkpt>
      <trkpt lat="59.898515" lon="17.630148">
        <ele>25.6197</ele>
        <time>1970-01-01T01:00:00Z</time>
      </trkpt>
      <trkpt lat="59.898587" lon="17.630327">
        <ele>25.6013</ele>
        <time>1970-01-01T01:00:00Z</time>
      </trkpt>
      <trkpt lat="59.898641" lon="17.630513">
        <ele>25.4385</ele>
        <time>1970-01-01T01:00:00Z</time>
      </trkpt>
      <trkpt lat="59.898696" lon="17.630685">
        <ele>25.4713</ele>
        <time>1970-01-01T01:00:00Z</time>
      </trkpt>
      <trkpt lat="59.898763" lon="17.63086">
        <ele>25.1266</ele>
        <time>1970-01-01T01:00:00Z</time>
      </trkpt>
      <trkpt lat="59.898824" lon="17.631">
        <ele>24.6676</ele>
        <time>1970-01-01T01:00:00Z</time>
      </trkpt>
      <trkpt lat="59.898899" lon="17.631154">
        <ele>24.8011</ele>
        <time>1970-01-01T01:00:00Z</time>
      </trkpt>
      <trkpt lat="59.89896" lon="17.631313">
        <ele>24.8864</ele>
        <time>1970-01-01T01:00:00Z</time>
      </trkpt>
      <trkpt lat="59.899032" lon="17.631464">
        <ele>24.9363</ele>
        <time>1970-01-01T01:00:00Z</time>
      </trkpt>
      <trkpt lat="59.899111" lon="17.63159">
        <ele>24.6329</ele>
        <time>1970-01-01T01:00:00Z</time>
      </trkpt>
      <trkpt lat="59.899186" lon="17.631462">
        <ele>24.3658</ele>
        <time>1970-01-01T01:00:00Z</time>
      </trkpt>
      <trkpt lat="59.899225" lon="17.631267">
        <ele>24.1675</ele>
        <time>1970-01-01T01:00:00Z</time>
      </trkpt>
      <trkpt lat="59.899276" lon="17.631058">
        <ele>23.8849</ele>
        <time>1970-01-01T01:00:00Z</time>
      </trkpt>
      <trkpt lat="59.899369" lon="17.630947">
        <ele>23.5467</ele>
        <time>1970-01-01T01:00:00Z</time>
      </trkpt>
      <trkpt lat="59.899468" lon="17.630912">
        <ele>22.6025</ele>
        <time>1970-01-01T01:00:00Z</time>
      </trkpt>
      <trkpt lat="59.899573" lon="17.630871">
        <ele>22.6124</ele>
        <time>1970-01-01T01:00:00Z</time>
      </trkpt>
      <trkpt lat="59.899682" lon="17.630842">
        <ele>22.9588</ele>
        <time>1970-01-01T01:00:00Z</time>
      </trkpt>
      <trkpt lat="59.899794" lon="17.630803">
        <ele>22.3121</ele>
        <time>1970-01-01T01:00:00Z</time>
      </trkpt>
      <trkpt lat="59.899898" lon="17.630781">
        <ele>21.5437</ele>
        <time>1970-01-01T01:00:00Z</time>
      </trkpt>
      <trkpt lat="59.899988" lon="17.630775">
        <ele>21.0166</ele>
        <time>1970-01-01T01:00:00Z</time>
      </trkpt>
      <trkpt lat="59.900078" lon="17.630775">
        <ele>20.9349</ele>
        <time>1970-01-01T01:00:00Z</time>
      </trkpt>
      <trkpt lat="59.900202" lon="17.630833">
        <ele>20.4929</ele>
        <time>1970-01-01T01:00:00Z</time>
      </trkpt>
      <trkpt lat="59.900301" lon="17.630938">
        <ele>20.0498</ele>
        <time>1970-01-01T01:00:00Z</time>
      </trkpt>
      <trkpt lat="59.900405" lon="17.631056">
        <ele>19.8111</ele>
        <time>1970-01-01T01:00:00Z</time>
      </trkpt>
      <trkpt lat="59.900498" lon="17.631198">
        <ele>20.0532</ele>
        <time>1970-01-01T01:00:00Z</time>
      </trkpt>
      <trkpt lat="59.900602" lon="17.631282">
        <ele>20.3098</ele>
        <time>1970-01-01T01:00:00Z</time>
      </trkpt>
      <trkpt lat="59.900695" lon="17.631348">
        <ele>19.7443</ele>
        <time>1970-01-01T01:00:00Z</time>
      </trkpt>
      <trkpt lat="59.900809" lon="17.631447">
        <ele>19.4206</ele>
        <time>1970-01-01T01:00:00Z</time>
      </trkpt>
      <trkpt lat="59.900897" lon="17.631554">
        <ele>18.721</ele>
        <time>1970-01-01T01:00:00Z</time>
      </trkpt>
      <trkpt lat="59.900969" lon="17.631663">
        <ele>18.2813</ele>
        <time>1970-01-01T01:00:00Z</time>
      </trkpt>
      <trkpt lat="59.901065" lon="17.631783">
        <ele>17.7881</ele>
        <time>1970-01-01T01:00:00Z</time>
      </trkpt>
      <trkpt lat="59.901142" lon="17.631897">
        <ele>17.3388</ele>
        <time>1970-01-01T01:00:00Z</time>
      </trkpt>
      <trkpt lat="59.901163" lon="17.632118">
        <ele>17.1774</ele>
        <time>1970-01-01T01:00:00Z</time>
      </trkpt>
      <trkpt lat="59.901121" lon="17.632319">
        <ele>17.2984</ele>
        <time>1970-01-01T01:00:00Z</time>
      </trkpt>
      <trkpt lat="59.901065" lon="17.63246">
        <ele>17.5394</ele>
        <time>1970-01-01T01:00:00Z</time>
      </trkpt>
      <trkpt lat="59.900991" lon="17.632613">
        <ele>17.4401</ele>
        <time>1970-01-01T01:00:00Z</time>
      </trkpt>
      <trkpt lat="59.900906" lon="17.632776">
        <ele>17.0674</ele>
        <time>1970-01-01T01:00:00Z</time>
      </trkpt>
      <trkpt lat="59.900823" lon="17.632928">
        <ele>17.2721</ele>
        <time>1970-01-01T01:00:00Z</time>
      </trkpt>
      <trkpt lat="59.900744" lon="17.633051">
        <ele>17.013</ele>
        <time>1970-01-01T01:00:00Z</time>
      </trkpt>
      <trkpt lat="59.900646" lon="17.633199">
        <ele>17.5298</ele>
        <time>1970-01-01T01:00:00Z</time>
      </trkpt>
      <trkpt lat="59.900567" lon="17.633295">
        <ele>18.1008</ele>
        <time>1970-01-01T01:00:00Z</time>
      </trkpt>
      <trkpt lat="59.900483" lon="17.633379">
        <ele>18.4328</ele>
        <time>1970-01-01T01:00:00Z</time>
      </trkpt>
      <trkpt lat="59.900398" lon="17.633481">
        <ele>18.6657</ele>
        <time>1970-01-01T01:00:00Z</time>
      </trkpt>
      <trkpt lat="59.900302" lon="17.633587">
        <ele>19.3469</ele>
        <time>1970-01-01T01:00:00Z</time>
      </trkpt>
      <trkpt lat="59.9002" lon="17.633691">
        <ele>19.883</ele>
        <time>1970-01-01T01:00:00Z</time>
      </trkpt>
      <trkpt lat="59.900116" lon="17.633762">
        <ele>20.3556</ele>
        <time>1970-01-01T01:00:00Z</time>
      </trkpt>
      <trkpt lat="59.900028" lon="17.633841">
        <ele>20.6598</ele>
        <time>1970-01-01T01:00:00Z</time>
      </trkpt>
      <trkpt lat="59.899944" lon="17.633909">
        <ele>20.9692</ele>
        <time>1970-01-01T01:00:00Z</time>
      </trkpt>
      <trkpt lat="59.899838" lon="17.633946">
        <ele>21.0872</ele>
        <time>1970-01-01T01:00:00Z</time>
      </trkpt>
      <trkpt lat="59.899737" lon="17.63399">
        <ele>21.4047</ele>
        <time>1970-01-01T01:00:00Z</time>
      </trkpt>
      <trkpt lat="59.899647" lon="17.634058">
        <ele>21.9754</ele>
        <time>1970-01-01T01:00:00Z</time>
      </trkpt>
      <trkpt lat="59.899527" lon="17.634096">
        <ele>22.1603</ele>
        <time>1970-01-01T01:00:00Z</time>
      </trkpt>
      <trkpt lat="59.899417" lon="17.634107">
        <ele>22.9729</ele>
        <time>1970-01-01T01:00:00Z</time>
      </trkpt>
      <trkpt lat="59.899321" lon="17.634125">
        <ele>23.4449</ele>
        <time>1970-01-01T01:00:00Z</time>
      </trkpt>
      <trkpt lat="59.899206" lon="17.634193">
        <ele>23.7714</ele>
        <time>1970-01-01T01:00:00Z</time>
      </trkpt>
      <trkpt lat="59.899101" lon="17.634264">
        <ele>24.0763</ele>
        <time>1970-01-01T01:00:00Z</time>
      </trkpt>
      <trkpt lat="59.898986" lon="17.634347">
        <ele>24.2281</ele>
        <time>1970-01-01T01:00:00Z</time>
      </trkpt>
      <trkpt lat="59.898896" lon="17.634379">
        <ele>24.3914</ele>
        <time>1970-01-01T01:00:00Z</time>
      </trkpt>
      <trkpt lat="59.898784" lon="17.634383">
        <ele>24.9005</ele>
        <time>1970-01-01T01:00:00Z</time>
      </trkpt>
      <trkpt lat="59.89868" lon="17.634345">
        <ele>25.3042</ele>
        <time>1970-01-01T01:00:00Z</time>
      </trkpt>
      <trkpt lat="59.89858" lon="17.634318">
        <ele>25.7262</ele>
        <time>1970-01-01T01:00:00Z</time>
      </trkpt>
      <trkpt lat="59.898497" lon="17.634289">
        <ele>25.9091</ele>
        <time>1970-01-01T01:00:00Z</time>
      </trkpt>
    </trkseg>
  </trk>
</gpx>